GW3611 Weather Reports


Display with metric or nautical units.
time (UTC)temp
F
wind
direction
speed
MPH
gust
MPH
rain 1hr
in
rain 24hr
in
rain mn
in
humidity
%
barometer
mb
20260508224507 63 75 0.0 5.0 0.00 0.00 0.00 62 1011.2
20260508223034 64 71 0.0 2.0 0.00 0.00 0.00 62 1011.2
20260508221542 64 71 1.0 2.0 0.00 0.00 0.00 61 1011.2
20260508220051 64 71 0.0 4.0 0.00 0.00 0.00 61 1011.2
20260508214559 65 88 1.0 5.0 0.00 0.00 0.00 62 1011.2
20260508213111 65 76 0.0 7.0 0.00 0.00 0.00 61 1011.5
20260508211602 64 78 0.0 3.0 0.00 0.00 0.00 61 1011.3
20260508210010 64 74 0.0 1.0 0.00 0.00 0.00 64 1011.3
20260508204537 63 78 2.0 7.0 0.00 0.00 0.00 59 1011.6
20260508203057 64 75 0.0 5.0 0.00 0.00 0.00 63 1011.7
20260508201609 63 78 3.0 9.0 0.00 0.00 0.00 60 1011.9
20260508200136 64 64 1.0 5.0 0.00 0.00 0.00 58 1012.0
20260508194524 65 113 0.0 3.0 0.00 0.00 0.00 60 1012.5
20260508193052 65 82 1.0 8.0 0.00 0.00 0.00 59 1012.6
20260508191556 65 88 1.0 8.0 0.00 0.00 0.00 59 1013.0
20260508190107 64 355 0.0 4.0 0.00 0.00 0.00 58 1013.0
20260508184604 64 76 2.0 8.0 0.00 0.00 0.00 55 1013.3
20260508183105 65 81 2.0 10.0 0.00 0.00 0.00 53 1013.5
20260508181525 65 153 0.0 9.0 0.00 0.00 0.00 58 1013.5
20260508180038 64 349 1.0 5.0 0.00 0.00 0.00 56 1013.7
20260508174559 63 21 1.0 5.0 0.00 0.00 0.00 58 1013.9
20260508173059 62 53 0.0 8.0 0.00 0.00 0.00 58 1014.3
20260508171601 62 67 1.0 5.0 0.00 0.00 0.00 56 1014.3
20260508170016 61 76 1.0 7.0 0.00 0.00 0.00 60 1014.7
20260508164544 60 69 0.0 4.0 0.00 0.00 0.00 59 1014.9
20260508163051 60 74 0.0 5.0 0.00 0.00 0.00 61 1015.3
20260508161557 60 67 2.0 6.0 0.00 0.00 0.00 63 1015.4
20260508160100 58 35 0.0 4.0 0.00 0.00 0.00 62 1015.5
20260508154558 57 78 1.0 4.0 0.00 0.00 0.00 61 1015.7
20260508153108 57 80 0.0 5.0 0.00 0.00 0.00 63 1015.9
20260508151508 56 333 1.0 3.0 0.00 0.00 0.00 65 1016.1
20260508150031 54 332 0.0 3.0 0.00 0.00 0.00 65 1016.0
20260508144551 53 331 0.0 2.0 0.00 0.00 0.00 76 1016.0
20260508143107 51 329 0.0 0.0 0.00 0.00 0.00 78 1016.2
20260508141512 49 329 0.0 0.0 0.00 0.00 0.00 83 1016.4
20260508140030 47 329 0.0 0.0 0.00 0.00 0.00 90 1016.6
20260508134552 46 329 0.0 0.0 0.00 0.00 0.00 94 1016.6
20260508133105 45 329 0.0 0.0 0.00 0.00 0.00 95 1016.7
20260508131524 44 329 0.0 0.0 0.00 0.00 0.00 95 1016.8
20260508130034 43 329 0.0 0.0 0.00 0.00 0.00 95 1016.7
20260508124545 43 329 0.0 0.0 0.00 0.01 0.00 95 1016.5
20260508123041 42 329 0.0 0.0 0.00 0.01 0.00 95 1016.5
20260508121605 42 329 0.0 0.0 0.00 0.01 0.00 95 1016.4
20260508120100 41 329 0.0 0.0 0.00 0.01 0.00 95 1016.1
20260508114555 41 329 0.0 0.0 0.00 0.06 0.00 95 1015.8
20260508113009 40 329 0.0 0.0 0.00 0.06 0.00 95 1015.7
20260508111549 40 329 0.0 0.0 0.00 0.06 0.00 94 1015.2
20260508110057 39 329 0.0 0.0 0.00 0.06 0.00 94 1015.1
20260508104547 40 329 0.0 0.0 0.00 0.26 0.00 94 1014.9
20260508103109 40 329 0.0 0.0 0.00 0.26 0.00 94 1014.6
20260508101556 40 329 0.0 0.0 0.00 0.26 0.00 94 1014.5
20260508100054 40 329 0.0 0.0 0.00 0.26 0.00 94 1014.1
20260508094620 40 329 0.0 0.0 0.00 0.26 0.00 94 1014.0
20260508093009 41 329 0.0 0.0 0.00 0.26 0.00 94 1013.8
20260508091532 41 329 0.0 0.0 0.00 0.26 0.00 94 1013.9
20260508090059 41 329 0.0 0.0 0.00 0.26 0.00 94 1013.7
20260508084555 42 329 0.0 0.0 0.00 0.26 0.00 94 1013.6
20260508083126 42 329 0.0 0.0 0.00 0.26 0.00 94 1013.5
20260508081500 42 329 0.0 0.0 0.00 0.26 0.00 94 1013.4
20260508080023 42 329 0.0 0.0 0.00 0.26 0.00 93 1013.2
20260508074541 42 329 0.0 0.0 0.00 0.26 0.00 93 1013.1
20260508073057 42 329 0.0 0.0 0.00 0.26 0.00 93 1013.3
20260508071559 42 329 0.0 0.0 0.00 0.26 0.00 93 1013.1
20260508070008 42 329 0.0 0.0 0.00 0.26 0.00 92 1013.0
20260508064534 44 329 0.0 0.0 0.00 0.27 0.00 93 1013.1
20260508063044 44 329 0.0 0.0 0.00 0.27 0.00 93 1013.1
20260508061600 44 329 0.0 0.0 0.00 0.27 0.00 93 1013.2
20260508060059 45 329 0.0 0.0 0.00 0.27 0.00 93 1013.2
20260508054605 44 329 0.0 0.0 0.00 0.28 0.00 93 1012.9
20260508053027 44 329 0.0 0.0 0.00 0.28 0.00 93 1013.1
20260508051528 44 329 0.0 0.0 0.00 0.28 0.00 93 1013.2
20260508050048 45 329 0.0 0.0 0.00 0.28 0.00 93 1012.9
20260508044553 44 329 0.0 0.0 0.00 0.42 0.00 93 1012.7
20260508043105 44 329 0.0 0.0 0.00 0.42 0.00 92 1012.6
20260508041604 44 329 0.0 0.0 0.00 0.42 0.00 92 1012.6
20260508040017 45 329 0.0 0.0 0.00 0.42 0.00 92 1012.6
20260508034546 45 329 0.0 0.0 0.00 0.43 0.42 92 1012.5
20260508033054 45 329 0.0 0.0 0.00 0.43 0.42 91 1012.5
20260508031558 45 329 0.0 0.0 0.00 0.43 0.42 91 1012.5
20260508030054 46 329 0.0 0.0 0.00 0.43 0.42 90 1012.4
20260508024557 46 329 0.0 0.0 0.00 0.44 0.42 90 1012.5
20260508023101 47 329 0.0 0.0 0.00 0.44 0.42 89 1012.3
20260508021556 47 329 0.0 0.0 0.00 0.44 0.42 88 1011.7
20260508020057 48 329 0.0 0.0 0.00 0.44 0.42 86 1011.7
20260508014604 49 329 0.0 0.0 0.00 0.51 0.42 85 1011.5
20260508013006 50 329 0.0 0.0 0.00 0.51 0.42 83 1011.1
20260508011516 50 329 0.0 0.0 0.00 0.51 0.42 82 1011.0
20260508010036 51 329 0.0 0.0 0.00 0.51 0.42 80 1010.8
20260508004553 51 329 0.0 0.0 0.00 0.60 0.42 80 1010.7
20260508003108 52 329 0.0 0.0 0.00 0.60 0.42 77 1010.4
20260508001605 53 329 0.0 0.0 0.00 0.60 0.42 76 1010.3
20260508000012 54 329 0.0 2.0 0.00 0.60 0.42 77 1009.9
20260507234537 55 330 2.0 4.0 0.00 0.73 0.42 74 1009.8
20260507233049 56 5 0.0 2.0 0.00 0.73 0.42 78 1009.7
20260507231551 55 5 0.0 0.0 0.00 0.73 0.42 77 1009.6
20260507230101 55 360 1.0 6.0 0.00 0.73 0.42 77 1009.6